Location: Piotrkow Trybunalski
(51.4000°N, 19.6830°E)
Time: 09:58:51
(UTC+01:00)

BlueWalker 3 - Pass Details

Date: 08 December 2022
Orbit: 499 x 517 km, 53.2° (Epoch: 29 January)

Event Time Altitude Azimuth Distance (km) Brightness Sun altitude
Rises 16:45:26 0° 286° (WNW) 2,635 6.5 -10.6°
Reaches altitude 10° 16:47:38 10° 287° (WNW) 1,743 5.5 -10.9°
Maximum altitude 16:51:36 90° 213° (SSW) 518 1.9 -11.4°
Enters shadow 16:55:18 11° 109° (ESE) 1,641 4.1 -12.0°
